This is the latest recevied weather packets stored in our database for station/object N1ICS-1. If no packets are shown the sender has not sent any weather packets the latest 10 day(s).
| Time | Temp. | Humidity | Pressure | Rain* | Wind** | Luminosity | Snow |
|---|---|---|---|---|---|---|---|
| 1777529402 | 6.67° C | 88% | 1015 hPa | 0 mm | - | 0 W/m² | - |
| 1777529102 | 6.67° C | 89% | 1015.1 hPa | 0 mm | - | 0 W/m² | - |
| 1777528801 | 6.67° C | 89% | 1015.1 hPa | 0 mm | - | 0 W/m² | - |
| 1777528502 | 6.67° C | 88% | 1015.3 hPa | 0 mm | - | 0 W/m² | - |
| 1777528202 | 6.67° C | 89% | 1015.3 hPa | 0 mm | - | 0 W/m² | - |
| 1777527902 | 6.67° C | 93% | 1014.9 hPa | 0 mm | - | 0 W/m² | - |
| 1777527602 | 7.22° C | 90% | 1015.1 hPa | 0 mm | - | 0 W/m² | - |
| 1777527301 | 7.22° C | 89% | 1015 hPa | 0 mm | - | 0 W/m² | - |
| 1777527002 | 7.22° C | 90% | 1015.1 hPa | 0 mm | - | 0 W/m² | - |
| 1777526702 | 7.78° C | 88% | 1015.3 hPa | 0 mm | - | 0 W/m² | - |
| 1777526402 | 7.78° C | 88% | 1015.2 hPa | 0 mm | - | 0 W/m² | - |
| 1777526102 | 7.78° C | 88% | 1015.3 hPa | 0 mm | - | 0 W/m² | - |
| 1777525801 | 7.78° C | 88% | 1015.2 hPa | 0 mm | - | 0 W/m² | - |
| 1777525502 | 7.78° C | 88% | 1015.4 hPa | 0 mm | - | 0 W/m² | - |
| 1777525202 | 7.78° C | 89% | 1015.2 hPa | 0 mm | - | 0 W/m² | - |
| 1777524902 | 7.78° C | 88% | 1015.1 hPa | 0 mm | - | 0 W/m² | - |
| 1777524602 | 7.78° C | 92% | 1015.1 hPa | 0 mm | - | 0 W/m² | - |
| 1777524302 | 7.78° C | 93% | 1015.1 hPa | 0 mm | - | 0 W/m² | - |
| 1777524001 | 7.78° C | 91% | 1015.2 hPa | 0 mm | - | 0 W/m² | - |
| 1777523702 | 7.78° C | 90% | 1015.1 hPa | 0 mm | - | 0 W/m² | - |
| 1777523103 | 7.78° C | 91% | 1015 hPa | 0 mm | - | 0 W/m² | - |
| 1777522801 | 7.78° C | 92% | 1015.1 hPa | 0 mm | - | 0 W/m² | - |
| 1777522501 | 7.78° C | 92% | 1015.1 hPa | 0 mm | - | 0 W/m² | - |
| 1777522202 | 7.78° C | 91% | 1014.9 hPa | 0 mm | - | 0 W/m² | - |
| 1777521902 | 7.78° C | 92% | 1015 hPa | 0 mm | - | 0 W/m² | - |
* Rain latest hour (hover to see other rain measurements)
** Current wind speed in m/s (hover to see current wind gust speed)